When you browse on this site, cookies collect data to enhance your experience and personalize the content and advertising you see.
Visit our Privacy Policy to learn more. By continuing to use the site, you agree to this use of cookies and data.

Hourly Weather Tytivka

Today, 13 August, Thursday

Time Temperature Precipitation Wind Pressure Humidity
00:00 +11°C° 0 mm 3 mps 752 mmHg 87%
01:00 +11°C° 0 mm 3 mps 752 mmHg 89%
02:00 +10°C° 0 mm 3 mps 752 mmHg 91%
03:00 +10°C° 0 mm 3 mps 752 mmHg 92%
04:00 +10°C° 0 mm 3 mps 751 mmHg 93%
05:00 +9°C° 0 mm 3 mps 751 mmHg 95%
06:00 +11°C° 0 mm 3 mps 751 mmHg 88%
07:00 +13°C° 0 mm 3 mps 751 mmHg 81%
08:00 +16°C° 0 mm 3 mps 751 mmHg 74%
09:00 +17°C° 0 mm 3 mps 751 mmHg 69%
10:00 +18°C° 0 mm 4 mps 751 mmHg 63%
11:00 +19°C° 0 mm 4 mps 751 mmHg 58%
12:00 +20°C° 0 mm 4 mps 751 mmHg 57%
13:00 +20°C° 0 mm 4 mps 751 mmHg 57%
14:00 +20°C° 0 mm 3 mps 751 mmHg 56%
15:00 +19°C° 0 mm 3 mps 751 mmHg 59%
16:00 +19°C° 0 mm 3 mps 751 mmHg 63%
17:00 +19°C° 0 mm 3 mps 751 mmHg 66%
18:00 +17°C° 0 mm 3 mps 751 mmHg 70%
19:00 +16°C° 0 mm 3 mps 751 mmHg 74%
20:00 +13°C° 0 mm 3 mps 751 mmHg 78%
21:00 +12°C° 0 mm 3 mps 751 mmHg 80%
22:00 +12°C° 0 mm 3 mps 751 mmHg 82%
23:00 +11°C° 0 mm 3 mps 751 mmHg 84%

Tomorrow, 14 August, Friday

Time Temperature Precipitation Wind Pressure Humidity
00:00 +10°C° 0 mm 3 mps 751 mmHg 86%
01:00 +10°C° 0 mm 2 mps 751 mmHg 88%
02:00 +9°C° 0 mm 2 mps 751 mmHg 89%
03:00 +9°C° 0 mm 2 mps 751 mmHg 89%
04:00 +9°C° 0 mm 3 mps 751 mmHg 89%
05:00 +9°C° 0 mm 3 mps 751 mmHg 89%
06:00 +11°C° 0 mm 3 mps 751 mmHg 82%
07:00 +12°C° 0 mm 3 mps 751 mmHg 75%
08:00 +14°C° 0 mm 4 mps 752 mmHg 68%
09:00 +15°C° 0 mm 4 mps 752 mmHg 62%
10:00 +18°C° 0 mm 4 mps 752 mmHg 56%
11:00 +19°C° 0 mm 4 mps 752 mmHg 50%
12:00 +20°C° 0 mm 4 mps 752 mmHg 49%
13:00 +20°C° 0 mm 4 mps 752 mmHg 48%
14:00 +20°C° 0 mm 4 mps 751 mmHg 47%
15:00 +20°C° 0 mm 3 mps 752 mmHg 50%
16:00 +19°C° 0 mm 3 mps 752 mmHg 53%
17:00 +19°C° 0 mm 3 mps 752 mmHg 56%
18:00 +17°C° 0 mm 3 mps 752 mmHg 59%
19:00 +16°C° 0 mm 2 mps 752 mmHg 63%
20:00 +14°C° 0 mm 2 mps 752 mmHg 67%
21:00 +13°C° 0 mm 2 mps 752 mmHg 69%
22:00 +13°C° 0 mm 2 mps 752 mmHg 72%
23:00 +12°C° 0 mm 2 mps 753 mmHg 74%

Day after tomorrow, 15 August, Saturday

Time Temperature Precipitation Wind Pressure Humidity
00:00 +12°C° 0 mm 1 mps 753 mmHg 75%
01:00 +11°C° 0 mm 1 mps 753 mmHg 77%
02:00 +11°C° 0 mm 1 mps 753 mmHg 78%
03:00 +11°C° 0 mm 1 mps 753 mmHg 80%
04:00 +11°C° 0 mm 1 mps 753 mmHg 82%
05:00 +11°C° 0 mm 1 mps 753 mmHg 84%
06:00 +12°C° 0 mm 1 mps 753 mmHg 79%
07:00 +14°C° 0 mm 1 mps 753 mmHg 74%
08:00 +16°C° 0 mm 2 mps 753 mmHg 69%
09:00 +17°C° 0 mm 2 mps 753 mmHg 64%
10:00 +19°C° 0 mm 2 mps 753 mmHg 58%
11:00 +20°C° 0 mm 2 mps 753 mmHg 53%
12:00 +20°C° 0 mm 2 mps 753 mmHg 51%
13:00 +21°C° 0 mm 2 mps 753 mmHg 49%
14:00 +23°C° 0 mm 2 mps 753 mmHg 48%
15:00 +21°C° 0 mm 2 mps 753 mmHg 49%
16:00 +21°C° 0 mm 2 mps 753 mmHg 51%
17:00 +21°C° 0 mm 2 mps 752 mmHg 53%
18:00 +20°C° 0 mm 1 mps 752 mmHg 59%
19:00 +18°C° 0 mm 1 mps 753 mmHg 65%
20:00 +15°C° 0 mm 1 mps 753 mmHg 71%
21:00 +15°C° 0 mm 1 mps 753 mmHg 73%
22:00 +13°C° 0 mm 0 mps 753 mmHg 74%
23:00 +13°C° 0 mm 0 mps 753 mmHg 75%

16 August, Sunday

Time Temperature Precipitation Wind Pressure Humidity
00:00 +13°C° 0 mm 1 mps 753 mmHg 76%
01:00 +13°C° 0 mm 1 mps 753 mmHg 78%
02:00 +13°C° 0 mm 1 mps 753 mmHg 79%
03:00 +12°C° 0 mm 1 mps 752 mmHg 80%
04:00 +12°C° 0 mm 1 mps 752 mmHg 81%
05:00 +12°C° 0 mm 2 mps 752 mmHg 82%
06:00 +14°C° 0 mm 2 mps 752 mmHg 76%
07:00 +16°C° 0 mm 2 mps 752 mmHg 71%
08:00 +18°C° 0 mm 2 mps 752 mmHg 65%
09:00 +20°C° 0 mm 2 mps 753 mmHg 60%
10:00 +21°C° 0 mm 2 mps 753 mmHg 56%
11:00 +24°C° 0 mm 3 mps 753 mmHg 51%
12:00 +24°C° 0 mm 3 mps 752 mmHg 50%
13:00 +25°C° 0 mm 3 mps 752 mmHg 50%
14:00 +26°C° 0 mm 3 mps 752 mmHg 49%
15:00 +26°C° 0 mm 3 mps 752 mmHg 51%
16:00 +25°C° 0 mm 3 mps 751 mmHg 54%
17:00 +25°C° 0 mm 3 mps 751 mmHg 56%
18:00 +22°C° 0 mm 3 mps 751 mmHg 61%
19:00 +20°C° 0 mm 2 mps 751 mmHg 65%
20:00 +19°C° 0 mm 2 mps 751 mmHg 70%
21:00 +18°C° 0 mm 2 mps 751 mmHg 72%
22:00 +18°C° 0 mm 2 mps 751 mmHg 74%
23:00 +17°C° 0 mm 2 mps 751 mmHg 76%

17 August, Monday

Time Temperature Precipitation Wind Pressure Humidity
00:00 +17°C° 0 mm 2 mps 751 mmHg 77%
01:00 +16°C° 0 mm 2 mps 751 mmHg 78%
02:00 +16°C° 0 mm 2 mps 751 mmHg 79%
03:00 +16°C° 0 mm 2 mps 751 mmHg 80%
04:00 +16°C° 0 mm 2 mps 751 mmHg 82%
05:00 +15°C° 0 mm 2 mps 751 mmHg 83%
06:00 +17°C° 0 mm 2 mps 751 mmHg 79%
07:00 +19°C° 0 mm 2 mps 751 mmHg 74%
08:00 +21°C° 0 mm 2 mps 751 mmHg 70%
09:00 +23°C° 0 mm 2 mps 751 mmHg 65%
10:00 +25°C° 0 mm 2 mps 751 mmHg 60%
11:00 +26°C° 0 mm 2 mps 751 mmHg 56%
12:00 +27°C° 0 mm 2 mps 750 mmHg 53%
13:00 +27°C° 0 mm 2 mps 750 mmHg 50%
14:00 +28°C° 0 mm 2 mps 749 mmHg 47%
15:00 +27°C° 0 mm 2 mps 749 mmHg 49%
16:00 +27°C° 0 mm 2 mps 749 mmHg 50%
17:00 +27°C° 0 mm 2 mps 748 mmHg 52%
18:00 +25°C° 0 mm 2 mps 748 mmHg 54%
19:00 +23°C° 0 mm 1 mps 748 mmHg 56%
20:00 +21°C° 0 mm 1 mps 748 mmHg 58%
21:00 +20°C° 0 mm 1 mps 748 mmHg 59%
22:00 +20°C° 0 mm 1 mps 748 mmHg 59%
23:00 +20°C° 0 mm 1 mps 748 mmHg 59%

18 August, Tuesday

Time Temperature Precipitation Wind Pressure Humidity
00:00 +19°C° 0 mm 2 mps 747 mmHg 58%
01:00 +19°C° 0 mm 2 mps 747 mmHg 57%
02:00 +20°C° 0 mm 2 mps 747 mmHg 56%
03:00 +19°C° 0 mm 2 mps 746 mmHg 58%
04:00 +19°C° 0 mm 2 mps 746 mmHg 60%
05:00 +19°C° 0 mm 2 mps 746 mmHg 62%
06:00 +20°C° 0 mm 3 mps 746 mmHg 60%
07:00 +21°C° 0 mm 3 mps 745 mmHg 59%
08:00 +22°C° 0 mm 4 mps 745 mmHg 58%
09:00 +22°C° 0 mm 4 mps 745 mmHg 58%
10:00 +22°C° 0 mm 4 mps 745 mmHg 58%
11:00 +23°C° 0 mm 4 mps 745 mmHg 58%
12:00 +25°C° 0 mm 4 mps 744 mmHg 55%
13:00 +25°C° 0 mm 4 mps 744 mmHg 53%
14:00 +26°C° 0 mm 4 mps 744 mmHg 50%
15:00 +26°C° 0 mm 4 mps 743 mmHg 50%
16:00 +27°C° 0 mm 4 mps 743 mmHg 50%
17:00 +27°C° 0 mm 3 mps 743 mmHg 50%
18:00 +25°C° 1.1 mm 3 mps 742 mmHg 59%
19:00 +22°C° 1.1 mm 3 mps 742 mmHg 67%
20:00 +19°C° 1.1 mm 2 mps 742 mmHg 76%
21:00 +19°C° 1.5 mm 2 mps 742 mmHg 79%
22:00 +18°C° 1.5 mm 3 mps 742 mmHg 82%
23:00 +18°C° 1.5 mm 3 mps 742 mmHg 85%
Show more